Location: Dackenheim
(49.5215°N, 8.1854°E)
Time: 17:13:03
(UTC+00:00)

NOAA 19 - Visible Passes

Search period start: 14 March 2026 00:00
Search period end: 24 March 2026 00:00
Orbit: 838 x 857 km, 99.0° (Epoch: 14 March)

Date Brightness Start Highest point End Pass type
(mag) Time Alt. Az. Time Alt. Az. Time Alt. Az.
14 Mar 5.7 20:13:35 44° NE 20:13:35 44° NE 20:18:15 10° N visible
14 Mar 7.0 21:55:30 26° WNW 21:55:30 26° WNW 21:58:41 10° NNW visible
15 Mar 5.9 20:00:33 37° ENE 20:00:33 37° ENE 20:05:23 10° N visible
15 Mar 6.7 21:42:29 33° WNW 21:42:29 33° WNW 21:46:07 10° NNW visible
16 Mar 6.1 19:47:32 31° ENE 19:47:42 31° ENE 19:52:28 10° N visible
16 Mar 6.3 21:29:28 41° WNW 21:29:28 41° WNW 21:33:29 10° NNW visible
17 Mar 6.3 19:34:30 25° ENE 19:35:04 25° ENE 19:39:31 10° N visible
17 Mar 5.9 21:16:26 51° NW 21:16:26 51° NW 21:20:48 10° NNW visible
18 Mar 6.6 19:21:28 20° ENE 19:22:29 21° NE 19:26:31 10° N visible
18 Mar 5.6 21:03:24 62° NW 21:03:24 62° NW 21:08:05 10° NNW visible
18 Mar 7.8 22:45:20 12° WNW 22:45:20 12° WNW 22:46:33 10° WNW visible
19 Mar 6.8 19:08:27 16° ENE 19:09:55 18° NE 19:13:26 10° NNE visible
19 Mar 5.3 20:50:23 71° N 20:50:23 71° N 20:55:19 10° NNW visible
19 Mar 7.6 22:32:19 16° WNW 22:32:19 16° WNW 22:34:34 10° NW visible
20 Mar 7.0 18:55:26 12° ENE 18:57:22 14° NE 19:00:14 10° NNE visible
20 Mar 5.2 20:37:22 67° NE 20:37:22 67° NE 20:42:32 10° N visible
20 Mar 7.3 22:19:17 20° WNW 22:19:17 20° WNW 22:22:18 10° NW visible
21 Mar 7.2 18:42:54 10° ENE 18:44:50 12° NE 18:46:48 10° NNE visible
21 Mar 5.4 20:24:20 55° ENE 20:24:20 55° ENE 20:29:43 10° N visible
21 Mar 7.0 22:06:16 25° WNW 22:06:16 25° WNW 22:09:53 10° NW visible
22 Mar 5.6 20:11:19 44° ENE 20:11:37 45° ENE 20:16:52 10° N visible
22 Mar 6.7 21:53:15 31° WNW 21:53:15 31° WNW 21:57:21 10° NNW visible
23 Mar 5.9 19:58:17 35° E 19:58:58 36° ENE 20:04:00 10° N visible
23 Mar 6.3 21:40:13 39° W 21:40:13 39° W 21:44:46 10° NNW visible
